Year,Month,Day,Hour,Minute,Value (Times are PST for temperature in C)
2019,04,01,00,00,6.70
2019,04,01,00,01,6.70
2019,04,01,00,02,6.70
2019,04,01,00,03,6.70
2019,04,01,00,04,6.70
2019,04,01,00,05,6.60
2019,04,01,00,06,6.70
2019,04,01,00,07,6.60
2019,04,01,00,08,6.60
2019,04,01,00,09,6.60
2019,04,01,00,10,6.60
2019,04,01,00,11,6.60
2019,04,01,00,12,6.60
2019,04,01,00,13,6.60
2019,04,01,00,14,6.50
2019,04,01,00,15,6.50
2019,04,01,00,16,6.50
2019,04,01,00,17,6.50
2019,04,01,00,18,6.40
2019,04,01,00,19,6.40
2019,04,01,00,20,6.40
2019,04,01,00,21,6.40
2019,04,01,00,22,6.40
2019,04,01,00,23,6.40
2019,04,01,00,24,6.40
2019,04,01,00,25,6.40
2019,04,01,00,26,6.40
2019,04,01,00,27,6.40
2019,04,01,00,28,6.40
2019,04,01,00,29,6.40
2019,04,01,00,30,6.40
2019,04,01,00,31,6.30
2019,04,01,00,32,6.30
2019,04,01,00,33,6.30
2019,04,01,00,34,6.30
2019,04,01,00,35,6.30
2019,04,01,00,36,6.30
2019,04,01,00,37,6.20
2019,04,01,00,38,6.20
2019,04,01,00,39,6.20
2019,04,01,00,40,6.20
2019,04,01,00,41,6.20
2019,04,01,00,42,6.20
2019,04,01,00,43,6.10
2019,04,01,00,44,6.10
2019,04,01,00,45,6.10
2019,04,01,00,46,6.10
2019,04,01,00,47,6.10
2019,04,01,00,48,6.10
2019,04,01,00,49,6.00
2019,04,01,00,50,6.00
2019,04,01,00,51,6.00
2019,04,01,00,52,6.00
2019,04,01,00,53,6.00
2019,04,01,00,54,5.90
2019,04,01,00,55,5.90
2019,04,01,00,56,5.90
2019,04,01,00,57,6.00
2019,04,01,00,58,6.00
2019,04,01,00,59,6.20
2019,04,01,01,00,6.30
2019,04,01,01,01,6.60
2019,04,01,01,02,6.80
2019,04,01,01,03,7.00
2019,04,01,01,04,7.20
2019,04,01,01,05,7.40
2019,04,01,01,06,7.70
2019,04,01,01,07,7.90
2019,04,01,01,08,8.10
2019,04,01,01,09,8.30
2019,04,01,01,10,8.50
2019,04,01,01,11,8.70
2019,04,01,01,12,8.80
2019,04,01,01,13,9.00
2019,04,01,01,14,9.10
2019,04,01,01,15,9.20
2019,04,01,01,16,9.30
2019,04,01,01,17,9.40
2019,04,01,01,18,9.50
2019,04,01,01,19,9.50
2019,04,01,01,20,9.50
2019,04,01,01,21,9.60
2019,04,01,01,22,9.60
2019,04,01,01,23,9.70
2019,04,01,01,24,9.60
2019,04,01,01,25,9.60
2019,04,01,01,26,9.60
2019,04,01,01,27,9.50
2019,04,01,01,28,9.40
2019,04,01,01,29,9.40
2019,04,01,01,30,9.30
2019,04,01,01,31,9.30
2019,04,01,01,32,9.20
2019,04,01,01,33,9.10
2019,04,01,01,34,9.10
2019,04,01,01,35,9.00
2019,04,01,01,36,9.00
2019,04,01,01,37,8.90
2019,04,01,01,38,8.80
2019,04,01,01,39,8.70
2019,04,01,01,40,8.60
2019,04,01,01,41,8.60
2019,04,01,01,42,8.60
2019,04,01,01,43,8.50
2019,04,01,01,44,8.50
2019,04,01,01,45,8.50
2019,04,01,01,46,8.40
2019,04,01,01,47,8.40
2019,04,01,01,48,8.40
2019,04,01,01,49,8.30
2019,04,01,01,50,8.30
2019,04,01,01,51,8.20
2019,04,01,01,52,8.20
2019,04,01,01,53,8.20
2019,04,01,01,54,8.20
2019,04,01,01,55,8.20
2019,04,01,01,56,8.30
2019,04,01,01,57,8.30
2019,04,01,01,58,8.30
2019,04,01,01,59,8.40
2019,04,01,02,00,8.40
2019,04,01,02,01,8.40
2019,04,01,02,02,8.50
2019,04,01,02,03,8.60
2019,04,01,02,04,8.70
2019,04,01,02,05,8.70
2019,04,01,02,06,8.80
2019,04,01,02,07,8.80
2019,04,01,02,08,8.90
2019,04,01,02,09,9.00
2019,04,01,02,10,9.00
2019,04,01,02,11,9.10
2019,04,01,02,12,9.10
2019,04,01,02,13,9.20
2019,04,01,02,14,9.20
2019,04,01,02,15,9.20
2019,04,01,02,16,9.20
2019,04,01,02,17,9.20
2019,04,01,02,18,9.20
2019,04,01,02,19,9.20
2019,04,01,02,20,9.20
2019,04,01,02,21,9.20
2019,04,01,02,22,9.20
2019,04,01,02,23,9.20
2019,04,01,02,24,9.20
2019,04,01,02,25,9.10
2019,04,01,02,26,9.10
2019,04,01,02,27,9.10
2019,04,01,02,28,9.10
2019,04,01,02,29,9.10
2019,04,01,02,30,9.10
2019,04,01,02,31,9.00
2019,04,01,02,32,9.00
2019,04,01,02,33,9.00
2019,04,01,02,34,9.00
2019,04,01,02,35,9.00
2019,04,01,02,36,9.00
2019,04,01,02,37,9.00
2019,04,01,02,38,9.00
2019,04,01,02,39,9.00
2019,04,01,02,40,8.90
2019,04,01,02,41,8.90
2019,04,01,02,42,8.90
2019,04,01,02,43,8.80
2019,04,01,02,44,8.80
2019,04,01,02,45,8.70
2019,04,01,02,46,8.60
2019,04,01,02,47,8.60
2019,04,01,02,48,8.60
2019,04,01,02,49,8.50
2019,04,01,02,50,8.50
2019,04,01,02,51,8.50
2019,04,01,02,52,8.50
2019,04,01,02,53,8.40
2019,04,01,02,54,8.40
2019,04,01,02,55,8.40
2019,04,01,02,56,8.40
2019,04,01,02,57,8.30
2019,04,01,02,58,8.30
2019,04,01,02,59,8.30
2019,04,01,03,00,8.30
2019,04,01,03,01,8.20
2019,04,01,03,02,8.20
2019,04,01,03,03,8.20
2019,04,01,03,04,8.10
2019,04,01,03,05,8.10
2019,04,01,03,06,8.00
2019,04,01,03,07,8.00
2019,04,01,03,08,8.00
2019,04,01,03,09,7.90
2019,04,01,03,10,7.80
2019,04,01,03,11,7.80
2019,04,01,03,12,7.70
2019,04,01,03,13,7.70
2019,04,01,03,14,7.70
2019,04,01,03,15,7.70
2019,04,01,03,16,7.70
2019,04,01,03,17,7.60
2019,04,01,03,18,7.60
2019,04,01,03,19,7.60
2019,04,01,03,20,7.60
2019,04,01,03,21,7.60
2019,04,01,03,22,7.70
2019,04,01,03,23,7.70
2019,04,01,03,24,7.70
2019,04,01,03,25,7.70
2019,04,01,03,26,7.80
2019,04,01,03,27,7.80
2019,04,01,03,28,7.80
2019,04,01,03,29,7.80
2019,04,01,03,30,7.90
2019,04,01,03,31,7.90
2019,04,01,03,32,7.90
2019,04,01,03,33,7.90
2019,04,01,03,34,7.80
2019,04,01,03,35,7.80
2019,04,01,03,36,7.80
2019,04,01,03,37,7.90
2019,04,01,03,38,7.90
2019,04,01,03,39,7.90
2019,04,01,03,40,7.90
2019,04,01,03,41,7.90
2019,04,01,03,42,7.90
2019,04,01,03,43,7.90
2019,04,01,03,44,7.90
2019,04,01,03,45,7.90
2019,04,01,03,46,7.80
2019,04,01,03,47,7.80
2019,04,01,03,48,7.80
2019,04,01,03,49,7.80
2019,04,01,03,50,7.80
2019,04,01,03,51,7.80
2019,04,01,03,52,7.80
2019,04,01,03,53,7.80
2019,04,01,03,54,7.90
2019,04,01,03,55,7.90
2019,04,01,03,56,8.00
2019,04,01,03,57,8.00
2019,04,01,03,58,8.00
2019,04,01,03,59,8.00
2019,04,01,04,00,8.00
2019,04,01,04,01,8.00
2019,04,01,04,02,7.90
2019,04,01,04,03,7.90
2019,04,01,04,04,7.90
2019,04,01,04,05,7.90
2019,04,01,04,06,7.90
2019,04,01,04,07,7.90
2019,04,01,04,08,7.90
2019,04,01,04,09,7.90
2019,04,01,04,10,7.80
2019,04,01,04,11,7.80
2019,04,01,04,12,7.80
2019,04,01,04,13,7.80
2019,04,01,04,14,7.80
2019,04,01,04,15,7.80
2019,04,01,04,16,7.70
2019,04,01,04,17,7.70
2019,04,01,04,18,7.70
2019,04,01,04,19,7.70
2019,04,01,04,20,7.70
2019,04,01,04,21,7.70
2019,04,01,04,22,7.70
2019,04,01,04,23,7.70
2019,04,01,04,24,7.60
2019,04,01,04,25,7.60
2019,04,01,04,26,7.50
2019,04,01,04,27,7.50
2019,04,01,04,28,7.50
2019,04,01,04,29,7.40
2019,04,01,04,30,7.40
2019,04,01,04,31,7.40
2019,04,01,04,32,7.40
2019,04,01,04,33,7.40
2019,04,01,04,34,7.40
2019,04,01,04,35,7.40
2019,04,01,04,36,7.40
2019,04,01,04,37,7.40
2019,04,01,04,38,7.40
2019,04,01,04,39,7.40
2019,04,01,04,40,7.40
2019,04,01,04,41,7.50
2019,04,01,04,42,7.50
2019,04,01,04,43,7.50
2019,04,01,04,44,7.50
2019,04,01,04,45,7.50
2019,04,01,04,46,7.50
2019,04,01,04,47,7.50
2019,04,01,04,48,7.50
2019,04,01,04,49,7.50
2019,04,01,04,50,7.40
2019,04,01,04,51,7.40
2019,04,01,04,52,7.40
2019,04,01,04,53,7.40
2019,04,01,04,54,7.30
2019,04,01,04,55,7.30
2019,04,01,04,56,7.30
2019,04,01,04,57,7.30
2019,04,01,04,58,7.20
2019,04,01,04,59,7.20
2019,04,01,05,00,7.20
2019,04,01,05,01,7.20
2019,04,01,05,02,7.20
2019,04,01,05,03,7.10
2019,04,01,05,04,7.10
2019,04,01,05,05,7.10
2019,04,01,05,06,7.10
2019,04,01,05,07,7.10
2019,04,01,05,08,7.10
2019,04,01,05,09,7.10
2019,04,01,05,10,7.10
2019,04,01,05,11,7.10
2019,04,01,05,12,7.10
2019,04,01,05,13,7.10
2019,04,01,05,14,7.10
2019,04,01,05,15,7.10
2019,04,01,05,16,7.00
2019,04,01,05,17,7.00
2019,04,01,05,18,7.00
2019,04,01,05,19,7.00
2019,04,01,05,20,6.90
2019,04,01,05,21,6.90
2019,04,01,05,22,6.90
2019,04,01,05,23,6.80
2019,04,01,05,24,6.80
2019,04,01,05,25,6.80
2019,04,01,05,26,6.80
2019,04,01,05,27,6.70
2019,04,01,05,28,6.70
2019,04,01,05,29,6.70
2019,04,01,05,30,6.70
2019,04,01,05,31,6.70
2019,04,01,05,32,6.70
2019,04,01,05,33,6.70
2019,04,01,05,34,6.60
2019,04,01,05,35,6.60
2019,04,01,05,36,6.60
2019,04,01,05,37,6.50
2019,04,01,05,38,6.50
2019,04,01,05,39,6.50
2019,04,01,05,40,6.40
2019,04,01,05,41,6.40
2019,04,01,05,42,6.40
2019,04,01,05,43,6.40
2019,04,01,05,44,6.40
2019,04,01,05,45,6.30
2019,04,01,05,46,6.30
2019,04,01,05,47,6.30
2019,04,01,05,48,6.30
2019,04,01,05,49,6.30
2019,04,01,05,50,6.30
2019,04,01,05,51,6.30
2019,04,01,05,52,6.30
2019,04,01,05,53,6.30
2019,04,01,05,54,6.30
2019,04,01,05,55,6.30
2019,04,01,05,56,6.30
2019,04,01,05,57,6.30
2019,04,01,05,58,6.30
2019,04,01,05,59,6.30
2019,04,01,06,00,6.30
2019,04,01,06,01,6.30
2019,04,01,06,02,6.30
2019,04,01,06,03,6.30
2019,04,01,06,04,6.20
2019,04,01,06,05,6.20
2019,04,01,06,06,6.20
2019,04,01,06,07,6.20
2019,04,01,06,08,6.20
2019,04,01,06,09,6.20
2019,04,01,06,10,6.20
2019,04,01,06,11,6.20
2019,04,01,06,12,6.10
2019,04,01,06,13,6.10
2019,04,01,06,14,6.10
2019,04,01,06,15,6.10
2019,04,01,06,16,6.10
2019,04,01,06,17,6.10
2019,04,01,06,18,6.10
2019,04,01,06,19,6.10
2019,04,01,06,20,6.10
2019,04,01,06,21,6.10
2019,04,01,06,22,6.20
2019,04,01,06,23,6.20
2019,04,01,06,24,6.20
2019,04,01,06,25,6.20
2019,04,01,06,26,6.20
2019,04,01,06,27,6.20
2019,04,01,06,28,6.20
2019,04,01,06,29,6.20
2019,04,01,06,30,6.20
2019,04,01,06,31,6.20
2019,04,01,06,32,6.20
2019,04,01,06,33,6.20
2019,04,01,06,34,6.20
2019,04,01,06,35,6.10
2019,04,01,06,36,6.10
2019,04,01,06,37,6.20
2019,04,01,06,38,6.10
2019,04,01,06,39,6.10
2019,04,01,06,40,6.10
2019,04,01,06,41,6.10
2019,04,01,06,42,6.10
2019,04,01,06,43,6.10
2019,04,01,06,44,6.10
2019,04,01,06,45,6.10
2019,04,01,06,46,6.10
2019,04,01,06,47,6.10
2019,04,01,06,48,6.10
2019,04,01,06,49,6.00
2019,04,01,06,50,6.00
2019,04,01,06,51,6.00
2019,04,01,06,52,6.00
2019,04,01,06,53,5.90
2019,04,01,06,54,5.90
2019,04,01,06,55,5.80
2019,04,01,06,56,5.80
2019,04,01,06,57,5.70
2019,04,01,06,58,5.70
2019,04,01,06,59,5.60
2019,04,01,07,00,5.60
2019,04,01,07,01,5.50
2019,04,01,07,02,5.50
2019,04,01,07,03,5.40
2019,04,01,07,04,5.40
2019,04,01,07,05,5.40
2019,04,01,07,06,5.40
2019,04,01,07,07,5.30
2019,04,01,07,08,5.30
2019,04,01,07,09,5.40
2019,04,01,07,10,5.40
2019,04,01,07,11,5.40
2019,04,01,07,12,5.40
2019,04,01,07,13,5.40
2019,04,01,07,14,5.40
2019,04,01,07,15,5.40
2019,04,01,07,16,5.50
2019,04,01,07,17,5.50
2019,04,01,07,18,5.50
2019,04,01,07,19,5.60
2019,04,01,07,20,5.60
2019,04,01,07,21,5.60
2019,04,01,07,22,5.60
2019,04,01,07,23,5.60
2019,04,01,07,24,5.60
2019,04,01,07,25,5.70
2019,04,01,07,26,5.70
2019,04,01,07,27,5.70
2019,04,01,07,28,5.70
2019,04,01,07,29,5.70
2019,04,01,07,30,5.70
2019,04,01,07,31,5.70
2019,04,01,07,32,5.80
2019,04,01,07,33,5.80
2019,04,01,07,34,5.80
2019,04,01,07,35,5.80
2019,04,01,07,36,5.90
2019,04,01,07,37,5.90
2019,04,01,07,38,5.90
2019,04,01,07,39,5.90
2019,04,01,07,40,6.00
2019,04,01,07,41,6.00
2019,04,01,07,42,6.10
2019,04,01,07,43,6.10
2019,04,01,07,44,6.20
2019,04,01,07,45,6.20
2019,04,01,07,46,6.20
2019,04,01,07,47,6.30
2019,04,01,07,48,6.30
2019,04,01,07,49,6.30
2019,04,01,07,50,6.30
2019,04,01,07,51,6.30
2019,04,01,07,52,6.40
2019,04,01,07,53,6.40
2019,04,01,07,54,6.40
2019,04,01,07,55,6.40
2019,04,01,07,56,6.50
2019,04,01,07,57,6.50
2019,04,01,07,58,6.50
2019,04,01,07,59,6.60
2019,04,01,08,00,6.60
2019,04,01,08,01,6.70
2019,04,01,08,02,6.70
2019,04,01,08,03,6.70
2019,04,01,08,04,6.80
2019,04,01,08,05,6.80
2019,04,01,08,06,6.80
2019,04,01,08,07,6.90
2019,04,01,08,08,6.90
2019,04,01,08,09,7.00
2019,04,01,08,10,7.00
2019,04,01,08,11,7.10
2019,04,01,08,12,7.10
2019,04,01,08,13,7.20
2019,04,01,08,14,7.20
2019,04,01,08,15,7.20
2019,04,01,08,16,7.30
2019,04,01,08,17,7.30
2019,04,01,08,18,7.30
2019,04,01,08,19,7.40
2019,04,01,08,20,7.40
2019,04,01,08,21,7.50
2019,04,01,08,22,7.50
2019,04,01,08,23,7.60
2019,04,01,08,24,7.60
2019,04,01,08,25,7.70
2019,04,01,08,26,7.70
2019,04,01,08,27,7.80
2019,04,01,08,28,7.80
2019,04,01,08,29,7.80
2019,04,01,08,30,7.90
2019,04,01,08,31,7.90
2019,04,01,08,32,8.00
2019,04,01,08,33,8.00
2019,04,01,08,34,8.10
2019,04,01,08,35,8.10
2019,04,01,08,36,8.20
2019,04,01,08,37,8.20
2019,04,01,08,38,8.30
2019,04,01,08,39,8.30
2019,04,01,08,40,8.40
2019,04,01,08,41,8.40
2019,04,01,08,42,8.50
2019,04,01,08,43,8.50
2019,04,01,08,44,8.60
2019,04,01,08,45,8.60
2019,04,01,08,46,8.70
2019,04,01,08,47,8.70
2019,04,01,08,48,8.70
2019,04,01,08,49,8.80
2019,04,01,08,50,8.80
2019,04,01,08,51,8.80
2019,04,01,08,52,8.90
2019,04,01,08,53,8.90
2019,04,01,08,54,8.90
2019,04,01,08,55,9.00
2019,04,01,08,56,9.10
2019,04,01,08,57,9.10
2019,04,01,08,58,9.10
2019,04,01,08,59,9.20
2019,04,01,09,00,9.20
2019,04,01,09,01,9.20
2019,04,01,09,02,9.30
2019,04,01,09,03,9.30
2019,04,01,09,04,9.40
2019,04,01,09,05,9.40
2019,04,01,09,06,9.50
2019,04,01,09,07,9.50
2019,04,01,09,08,9.60
2019,04,01,09,09,9.60
2019,04,01,09,10,9.70
2019,04,01,09,11,9.70
2019,04,01,09,12,9.80
2019,04,01,09,13,9.90
2019,04,01,09,14,10.00
2019,04,01,09,15,10.00
2019,04,01,09,16,10.10
2019,04,01,09,17,10.10
2019,04,01,09,18,10.20
2019,04,01,09,19,10.30
2019,04,01,09,20,10.30
2019,04,01,09,21,10.40
2019,04,01,09,22,10.40
2019,04,01,09,23,10.50
2019,04,01,09,24,10.60
2019,04,01,09,25,10.60
2019,04,01,09,26,10.70
2019,04,01,09,27,10.70
2019,04,01,09,28,10.80
2019,04,01,09,29,10.80
2019,04,01,09,30,10.90
2019,04,01,09,31,10.90
2019,04,01,09,32,11.00
2019,04,01,09,33,11.10
2019,04,01,09,34,11.10
2019,04,01,09,35,11.20
2019,04,01,09,36,11.30
2019,04,01,09,37,11.30
2019,04,01,09,38,11.40
2019,04,01,09,39,11.40
2019,04,01,09,40,11.50
2019,04,01,09,41,11.60
2019,04,01,09,42,11.70
2019,04,01,09,43,11.70
2019,04,01,09,44,11.80
2019,04,01,09,45,11.80
2019,04,01,09,46,11.90
2019,04,01,09,47,11.90
2019,04,01,09,48,12.00
2019,04,01,09,49,12.10
2019,04,01,09,50,12.10
2019,04,01,09,51,12.20
2019,04,01,09,52,12.30
2019,04,01,09,53,12.30
2019,04,01,09,54,12.40
2019,04,01,09,55,12.40
2019,04,01,09,56,12.50
2019,04,01,09,57,12.60
2019,04,01,09,58,12.60
2019,04,01,09,59,12.70
2019,04,01,10,00,12.80
2019,04,01,10,01,12.80
2019,04,01,10,02,12.80
2019,04,01,10,03,12.90
2019,04,01,10,04,12.90
2019,04,01,10,05,13.00
2019,04,01,10,06,13.00
2019,04,01,10,07,13.10
2019,04,01,10,08,13.10
2019,04,01,10,09,13.20
2019,04,01,10,10,13.20
2019,04,01,10,11,13.20
2019,04,01,10,12,13.20
2019,04,01,10,13,13.30
2019,04,01,10,14,13.30
2019,04,01,10,15,13.30
2019,04,01,10,16,13.30
2019,04,01,10,17,13.40
2019,04,01,10,18,13.40
2019,04,01,10,19,13.50
2019,04,01,10,20,13.50
2019,04,01,10,21,13.60
2019,04,01,10,22,13.70
2019,04,01,10,23,13.70
2019,04,01,10,24,13.80
2019,04,01,10,25,13.80
2019,04,01,10,26,13.80
2019,04,01,10,27,13.90
2019,04,01,10,28,13.90
2019,04,01,10,29,14.00
2019,04,01,10,30,14.10
2019,04,01,10,31,14.10
2019,04,01,10,32,14.10
2019,04,01,10,33,14.10
2019,04,01,10,34,14.10
2019,04,01,10,35,14.10
2019,04,01,10,36,14.10
2019,04,01,10,37,14.10
2019,04,01,10,38,14.20
2019,04,01,10,39,14.20
2019,04,01,10,40,14.30
2019,04,01,10,41,14.30
2019,04,01,10,42,14.30
2019,04,01,10,43,14.30
2019,04,01,10,44,14.30
2019,04,01,10,45,14.30
2019,04,01,10,46,14.30
2019,04,01,10,47,14.30
2019,04,01,10,48,14.40
2019,04,01,10,49,14.50
2019,04,01,10,50,14.50
2019,04,01,10,51,14.60
2019,04,01,10,52,14.60
2019,04,01,10,53,14.70
2019,04,01,10,54,14.70
2019,04,01,10,55,14.70
2019,04,01,10,56,14.70
2019,04,01,10,57,14.70
2019,04,01,10,58,14.70
2019,04,01,10,59,14.80
2019,04,01,11,00,14.80
2019,04,01,11,01,14.80
2019,04,01,11,02,14.80
2019,04,01,11,03,14.80
2019,04,01,11,04,14.90
2019,04,01,11,05,14.90
2019,04,01,11,06,14.90
2019,04,01,11,07,15.00
2019,04,01,11,08,15.00
2019,04,01,11,09,15.10
2019,04,01,11,10,15.10
2019,04,01,11,11,15.20
2019,04,01,11,12,15.30
2019,04,01,11,13,15.40
2019,04,01,11,14,15.50
2019,04,01,11,15,15.60
2019,04,01,11,16,15.60
2019,04,01,11,17,15.70
2019,04,01,11,18,15.70
2019,04,01,11,19,15.70
2019,04,01,11,20,15.80
2019,04,01,11,21,15.80
2019,04,01,11,22,15.80
2019,04,01,11,23,15.80
2019,04,01,11,24,15.90
2019,04,01,11,25,15.90
2019,04,01,11,26,16.00
2019,04,01,11,27,16.00
2019,04,01,11,28,16.10
2019,04,01,11,29,16.20
2019,04,01,11,30,16.20
2019,04,01,11,31,16.20
2019,04,01,11,32,16.20
2019,04,01,11,33,16.30
2019,04,01,11,34,16.30
2019,04,01,11,35,16.30
2019,04,01,11,36,16.30
2019,04,01,11,37,16.30
2019,04,01,11,38,16.30
2019,04,01,11,39,16.30
2019,04,01,11,40,16.30
2019,04,01,11,41,16.30
2019,04,01,11,42,16.30
2019,04,01,11,43,16.20
2019,04,01,11,44,16.20
2019,04,01,11,45,16.20
2019,04,01,11,46,16.10
2019,04,01,11,47,16.10
2019,04,01,11,48,16.10
2019,04,01,11,49,16.10
2019,04,01,11,50,16.20
2019,04,01,11,51,16.20
2019,04,01,11,52,16.30
2019,04,01,11,53,16.30
2019,04,01,11,54,16.30
2019,04,01,11,55,16.40
2019,04,01,11,56,16.40
2019,04,01,11,57,16.50
2019,04,01,11,58,16.50
2019,04,01,11,59,16.60
2019,04,01,12,00,16.60
2019,04,01,12,01,16.60
2019,04,01,12,02,16.60
2019,04,01,12,03,16.60
2019,04,01,12,04,16.60
2019,04,01,12,05,16.60
2019,04,01,12,06,16.60
2019,04,01,12,07,16.70
2019,04,01,12,08,16.70
2019,04,01,12,09,16.80
2019,04,01,12,10,16.80
2019,04,01,12,11,16.80
2019,04,01,12,12,16.80
2019,04,01,12,13,16.90
2019,04,01,12,14,16.90
2019,04,01,12,15,16.90
2019,04,01,12,16,17.00
2019,04,01,12,17,17.00
2019,04,01,12,18,17.00
2019,04,01,12,19,17.10
2019,04,01,12,20,17.10
2019,04,01,12,21,17.10
2019,04,01,12,22,17.10
2019,04,01,12,23,17.20
2019,04,01,12,24,17.20
2019,04,01,12,25,17.20
2019,04,01,12,26,17.20
2019,04,01,12,27,17.20
2019,04,01,12,28,17.20
2019,04,01,12,29,17.30
2019,04,01,12,30,17.40
2019,04,01,12,31,17.40
2019,04,01,12,32,17.50
2019,04,01,12,33,17.50
2019,04,01,12,34,17.50
2019,04,01,12,35,17.50
2019,04,01,12,36,17.60
2019,04,01,12,37,17.60
2019,04,01,12,38,17.60
2019,04,01,12,39,17.60
2019,04,01,12,40,17.60
2019,04,01,12,41,17.60
2019,04,01,12,42,17.60
2019,04,01,12,43,17.70
2019,04,01,12,44,17.60
2019,04,01,12,45,17.60
2019,04,01,12,46,17.50
2019,04,01,12,47,17.50
2019,04,01,12,48,17.50
2019,04,01,12,49,17.50
2019,04,01,12,50,17.60
2019,04,01,12,51,17.60
2019,04,01,12,52,17.70
2019,04,01,12,53,17.70
2019,04,01,12,54,17.80
2019,04,01,12,55,17.80
2019,04,01,12,56,17.90
2019,04,01,12,57,17.90
2019,04,01,12,58,17.80
2019,04,01,12,59,17.80
2019,04,01,13,00,17.80
2019,04,01,13,01,17.80
2019,04,01,13,02,17.90
2019,04,01,13,03,17.90
2019,04,01,13,04,17.90
2019,04,01,13,05,17.90
2019,04,01,13,06,17.90
2019,04,01,13,07,17.90
2019,04,01,13,08,17.90
2019,04,01,13,09,17.90
2019,04,01,13,10,17.90
2019,04,01,13,11,18.00
2019,04,01,13,12,18.00
2019,04,01,13,13,18.00
2019,04,01,13,14,18.00
2019,04,01,13,15,18.00
2019,04,01,13,16,18.00
2019,04,01,13,17,18.00
2019,04,01,13,18,18.00
2019,04,01,13,19,17.90
2019,04,01,13,20,17.90
2019,04,01,13,21,18.00
2019,04,01,13,22,18.00
2019,04,01,13,23,18.00
2019,04,01,13,24,18.00
2019,04,01,13,25,18.00
2019,04,01,13,26,18.00
2019,04,01,13,27,18.10
2019,04,01,13,28,18.10
2019,04,01,13,29,18.20
2019,04,01,13,30,18.30
2019,04,01,13,31,18.40
2019,04,01,13,32,18.40
2019,04,01,13,33,18.40
2019,04,01,13,34,18.50
2019,04,01,13,35,18.50
2019,04,01,13,36,18.60
2019,04,01,13,37,18.60
2019,04,01,13,38,18.60
2019,04,01,13,39,18.70
2019,04,01,13,40,18.70
2019,04,01,13,41,18.60
2019,04,01,13,42,18.60
2019,04,01,13,43,18.60
2019,04,01,13,44,18.70
2019,04,01,13,45,18.70
2019,04,01,13,46,18.70
2019,04,01,13,47,18.60
2019,04,01,13,48,18.60
2019,04,01,13,49,18.60
2019,04,01,13,50,18.60
2019,04,01,13,51,18.60
2019,04,01,13,52,18.60
2019,04,01,13,53,18.70
2019,04,01,13,54,18.60
2019,04,01,13,55,18.60
2019,04,01,13,56,18.60
2019,04,01,13,57,18.60
2019,04,01,13,58,18.70
2019,04,01,13,59,18.80
2019,04,01,14,00,18.80
2019,04,01,14,01,18.80
2019,04,01,14,02,18.80
2019,04,01,14,03,18.70
2019,04,01,14,04,18.70
2019,04,01,14,05,18.70
2019,04,01,14,06,18.70
2019,04,01,14,07,18.70
2019,04,01,14,08,18.70
2019,04,01,14,09,18.80
2019,04,01,14,10,18.80
2019,04,01,14,11,18.80
2019,04,01,14,12,18.80
2019,04,01,14,13,18.80
2019,04,01,14,14,18.80
2019,04,01,14,15,18.70
2019,04,01,14,16,18.70
2019,04,01,14,17,18.70
2019,04,01,14,18,18.70
2019,04,01,14,19,18.80
2019,04,01,14,20,18.80
2019,04,01,14,21,18.90
2019,04,01,14,22,19.00
2019,04,01,14,23,19.10
2019,04,01,14,24,19.20
2019,04,01,14,25,19.30
2019,04,01,14,26,19.30
2019,04,01,14,27,19.40
2019,04,01,14,28,19.40
2019,04,01,14,29,19.40
2019,04,01,14,30,19.40
2019,04,01,14,31,19.40
2019,04,01,14,32,19.40
2019,04,01,14,33,19.40
2019,04,01,14,34,19.40
2019,04,01,14,35,19.40
2019,04,01,14,36,19.50
2019,04,01,14,37,19.50
2019,04,01,14,38,19.60
2019,04,01,14,39,19.70
2019,04,01,14,40,19.80
2019,04,01,14,41,19.80
2019,04,01,14,42,19.80
2019,04,01,14,43,19.80
2019,04,01,14,44,19.80
2019,04,01,14,45,19.70
2019,04,01,14,46,19.70
2019,04,01,14,47,19.60
2019,04,01,14,48,19.60
2019,04,01,14,49,19.60
2019,04,01,14,50,19.60
2019,04,01,14,51,19.60
2019,04,01,14,52,19.60
2019,04,01,14,53,19.60
2019,04,01,14,54,19.50
2019,04,01,14,55,19.60
2019,04,01,14,56,19.60
2019,04,01,14,57,19.60
2019,04,01,14,58,19.70
2019,04,01,14,59,19.70
2019,04,01,15,00,19.70
2019,04,01,15,01,19.60
2019,04,01,15,02,19.60
2019,04,01,15,03,19.70
2019,04,01,15,04,19.70
2019,04,01,15,05,19.80
2019,04,01,15,06,19.80
2019,04,01,15,07,19.80
2019,04,01,15,08,19.80
2019,04,01,15,09,19.90
2019,04,01,15,10,20.00
2019,04,01,15,11,20.00
2019,04,01,15,12,20.00
2019,04,01,15,13,20.10
2019,04,01,15,14,20.00
2019,04,01,15,15,20.10
2019,04,01,15,16,20.10
2019,04,01,15,17,20.20
2019,04,01,15,18,20.20
2019,04,01,15,19,20.30
2019,04,01,15,20,20.30
2019,04,01,15,21,20.40
2019,04,01,15,22,20.40
2019,04,01,15,23,20.40
2019,04,01,15,24,20.40
2019,04,01,15,25,20.30
2019,04,01,15,26,20.20
2019,04,01,15,27,20.10
2019,04,01,15,28,20.00
2019,04,01,15,29,19.90
2019,04,01,15,30,19.90
2019,04,01,15,31,19.80
2019,04,01,15,32,19.80
2019,04,01,15,33,19.90
2019,04,01,15,34,19.90
2019,04,01,15,35,20.00
2019,04,01,15,36,20.00
2019,04,01,15,37,20.10
2019,04,01,15,38,20.10
2019,04,01,15,39,20.10
2019,04,01,15,40,20.20
2019,04,01,15,41,20.30
2019,04,01,15,42,20.30
2019,04,01,15,43,20.30
2019,04,01,15,44,20.30
2019,04,01,15,45,20.40
2019,04,01,15,46,20.50
2019,04,01,15,47,20.60
2019,04,01,15,48,20.60
2019,04,01,15,49,20.70
2019,04,01,15,50,20.80
2019,04,01,15,51,20.80
2019,04,01,15,52,20.80
2019,04,01,15,53,20.80
2019,04,01,15,54,20.70
2019,04,01,15,55,20.70
2019,04,01,15,56,20.70
2019,04,01,15,57,20.60
2019,04,01,15,58,20.60
2019,04,01,15,59,20.60
2019,04,01,16,00,20.60
2019,04,01,16,01,20.70
2019,04,01,16,02,20.60
2019,04,01,16,03,20.60
2019,04,01,16,04,20.60
2019,04,01,16,05,20.60
2019,04,01,16,06,20.60
2019,04,01,16,07,20.60
2019,04,01,16,08,20.60
2019,04,01,16,09,20.50
2019,04,01,16,10,20.60
2019,04,01,16,11,20.60
2019,04,01,16,12,20.60
2019,04,01,16,13,20.60
2019,04,01,16,14,20.60
2019,04,01,16,15,20.60
2019,04,01,16,16,20.60
2019,04,01,16,17,20.60
2019,04,01,16,18,20.70
2019,04,01,16,19,20.80
2019,04,01,16,20,20.80
2019,04,01,16,21,20.90
2019,04,01,16,22,21.00
2019,04,01,16,23,21.00
2019,04,01,16,24,21.10
2019,04,01,16,25,21.10
2019,04,01,16,26,21.10
2019,04,01,16,27,21.10
2019,04,01,16,28,21.10
2019,04,01,16,29,21.10
2019,04,01,16,30,21.10
2019,04,01,16,31,21.00
2019,04,01,16,32,21.00
2019,04,01,16,33,21.00
2019,04,01,16,34,21.10
2019,04,01,16,35,21.20
2019,04,01,16,36,21.30
2019,04,01,16,37,21.30
2019,04,01,16,38,21.30
2019,04,01,16,39,21.30
2019,04,01,16,40,21.30
2019,04,01,16,41,21.20
2019,04,01,16,42,21.20
2019,04,01,16,43,21.20
2019,04,01,16,44,21.20
2019,04,01,16,45,21.10
2019,04,01,16,46,21.10
2019,04,01,16,47,21.00
2019,04,01,16,48,20.90
2019,04,01,16,49,20.90
2019,04,01,16,50,20.80
2019,04,01,16,51,20.70
2019,04,01,16,52,20.60
2019,04,01,16,53,20.50
2019,04,01,16,54,20.50
2019,04,01,16,55,20.50
2019,04,01,16,56,20.50
2019,04,01,16,57,20.50
2019,04,01,16,58,20.50
2019,04,01,16,59,20.50
2019,04,01,17,00,20.60
2019,04,01,17,01,20.60
2019,04,01,17,02,20.60
2019,04,01,17,03,20.60
2019,04,01,17,04,20.60
2019,04,01,17,05,20.60
2019,04,01,17,06,20.60
2019,04,01,17,07,20.60
2019,04,01,17,08,20.60
2019,04,01,17,09,20.70
2019,04,01,17,10,20.70
2019,04,01,17,11,20.70
2019,04,01,17,12,20.60
2019,04,01,17,13,20.60
2019,04,01,17,14,20.60
2019,04,01,17,15,20.50
2019,04,01,17,16,20.50
2019,04,01,17,17,20.40
2019,04,01,17,18,20.40
2019,04,01,17,19,20.40
2019,04,01,17,20,20.40
2019,04,01,17,21,20.40
2019,04,01,17,22,20.40
2019,04,01,17,23,20.40
2019,04,01,17,24,20.50
2019,04,01,17,25,20.50
2019,04,01,17,26,20.50
2019,04,01,17,27,20.50
2019,04,01,17,28,20.60
2019,04,01,17,29,20.60
2019,04,01,17,30,20.60
2019,04,01,17,31,20.60
2019,04,01,17,32,20.60
2019,04,01,17,33,20.60
2019,04,01,17,34,20.60
2019,04,01,17,35,20.60
2019,04,01,17,36,20.70
2019,04,01,17,37,20.70
2019,04,01,17,38,20.70
2019,04,01,17,39,20.70
2019,04,01,17,40,20.70
2019,04,01,17,41,20.70
2019,04,01,17,42,20.70
2019,04,01,17,43,20.70